Location: Saluda
(35.2377°N, 82.3468°W)
Time: 12:12:14
(UTC+00:00)

S-56A Canister/Altair - Visible Passes

Search period start: 05 October 2022 00:00
Search period end: 15 October 2022 00:00
Orbit: 637 x 2496 km, 38.9° (Epoch: 04 October)

Date Brightness Start Highest point End Pass type
(mag) Time Alt. Az. Time Alt. Az. Time Alt. Az.
05 Oct 11.0 06:27:43 12° ENE 06:27:43 12° ENE 06:28:10 10° ENE visible
05 Oct 8.8 08:25:08 69° NNE 08:25:08 69° NNE 08:31:58 10° E visible
05 Oct 8.2 10:22:34 15° WNW 10:29:48 87° SSW 10:35:30 10° ESE visible
06 Oct 9.3 07:54:14 51° ENE 07:54:14 51° ENE 07:59:29 10° E visible
06 Oct 8.3 09:51:39 26° WNW 09:57:02 87° NNE 10:03:09 10° ESE visible
07 Oct 11.5 02:53:24 10° SSW 02:54:28 13° SSW 02:54:28 13° SSW visible
07 Oct 10.0 07:23:22 32° ENE 07:23:22 32° ENE 07:26:57 10° ENE visible
07 Oct 8.5 09:20:48 43° WNW 09:24:12 82° NNE 09:30:46 10° ESE visible
08 Oct 11.1 02:20:26 10° SSW 02:24:14 19° S 02:24:14 19° S visible
08 Oct 10.7 06:52:33 19° ENE 06:52:33 19° ENE 06:54:23 10° ENE visible
08 Oct 8.7 08:50:00 68° NW 08:51:17 79° NNE 08:58:20 10° E visible
08 Oct 8.6 10:47:33 10° WNW 10:55:32 46° SW 11:01:00 10° SE visible
09 Oct 10.9 01:47:38 10° S 01:54:01 24° S 01:54:01 24° S visible
09 Oct 11.6 03:50:43 10° SW 03:51:30 12° SW 03:51:30 12° SW visible
09 Oct 8.9 08:19:14 70° ENE 08:19:14 70° ENE 08:25:52 10° E visible
09 Oct 8.5 10:16:41 19° WNW 10:22:54 55° SSW 10:28:50 10° SE visible
10 Oct 10.7 01:15:01 10° S 01:23:50 26° SSE 01:23:50 26° SSE visible
10 Oct 11.1 03:17:16 10° SW 03:21:19 22° SW 03:21:19 22° SW visible
10 Oct 9.6 07:48:33 44° E 07:48:33 44° E 07:53:20 10° E visible
10 Oct 8.5 09:46:01 34° W 09:50:12 63° SSW 09:56:37 10° SE visible
11 Oct 10.7 00:42:36 10° S 00:53:11 24° SE 00:53:38 24° SE visible
11 Oct 10.7 02:43:56 10° SW 02:51:08 34° SSW 02:51:08 34° SSW visible
11 Oct 10.3 07:17:57 26° E 07:17:57 26° E 07:20:45 10° E visible
11 Oct 8.6 09:15:24 56° W 09:17:24 71° SSW 09:24:19 10° SE visible
12 Oct 10.8 00:10:28 10° S 00:19:56 21° SE 00:23:26 19° ESE visible
12 Oct 10.3 02:10:44 10° SW 02:20:55 45° S 02:20:55 45° S visible
12 Oct 11.5 04:16:29 10° WSW 04:18:24 15° WSW 04:18:24 15° WSW visible
12 Oct 11.0 06:47:24 13° E 06:47:24 13° E 06:48:06 10° E visible
12 Oct 8.7 08:44:51 77° S 08:44:51 77° S 08:51:57 10° ESE visible
12 Oct 9.5 10:42:20 13° W 10:47:55 25° SW 10:53:04 10° S visible
12 Oct 11.0 23:38:40 10° SSE 23:46:44 17° SE 23:53:11 13° E visible
13 Oct 10.1 01:37:40 10° SSW 01:50:39 50° SSE 01:50:39 50° SSE visible
13 Oct 11.0 03:42:49 10° WSW 03:48:08 27° WSW 03:48:08 27° WSW visible
13 Oct 9.3 08:14:24 50° ESE 08:14:24 50° ESE 08:19:32 10° ESE visible
13 Oct 9.3 10:11:52 24° W 10:15:21 31° SW 10:21:14 10° SSE visible
13 Oct 11.1 23:07:28 10° SSE 23:13:36 14° SE 23:19:55 10° E visible
14 Oct 10.1 01:04:44 10° SSW 01:18:10 46° SE 01:20:20 44° ESE visible
14 Oct 10.5 03:09:14 10° WSW 03:17:48 43° WSW 03:17:48 43° WSW visible
14 Oct 10.2 07:44:00 28° ESE 07:44:00 28° ESE 07:47:01 10° ESE visible
14 Oct 9.2 09:41:28 36° WSW 09:42:42 38° SW 09:49:14 10° SSE visible
